Tracking 17149 objects as of 22-May-2015
HD Live streaming from Space Station

H-2A DEB


H-2A DEB is no longer on orbit
H-2A DEB is classified as:


NORAD ID: 32017
Int'l Code: 2006-037P
Perigee: N/A
Apogee: N/A
Inclination: N/A
Period: N/A
Semi major axis: N/A
RCS: N/A
Launch date: September 11, 2006
Source: Japan (JPN)
Decay date: 2007-08-19

Note: This is SATELLITE DEBRIS
Your satellite tracking list
Your tracking list is empty





NASA's NSSDC Master Catalog

Two Line Element Set (TLE):
1 32017U 06037P   07230.84654432  .09232299  24004+0  36557-1 0  9999
2 32017 097.1685 348.7414 0041019 300.5121 063.1643 15.94125932  2735

Source of the keplerian elements: AFSPC

N2YO: 395